Change the Weather History Date:

Friday, October 21, 2011

  Actual Average Record
Temperature  
Mean Temperature 39 °F -  
Max Temperature 46 °F 38 °F 60 °F (1957)
Min Temperature 32 °F 23 °F 2 °F (1996)
Degree Days  
Heating Degree Days 26    
Moisture  
Dew Point 23 °F    
Average Humidity 55    
Maximum Humidity 85    
Minimum Humidity 40    
Precipitation  
Precipitation 0.00 in - - ()
Sea Level Pressure  
Sea Level Pressure 29.40 in    
Wind  
Wind Speed 7 mph (NNE)    
Max Wind Speed 15 mph    
Max Gust Speed -    
Visibility 10 miles    
Events      
Averages and records for this station are not official NWS values.
T = Trace of Precipitation, MM = Missing Value Source: NWS Daily Summary

Daily Weather History Graph

Daily Weather History Graph

Search for Another Location

Airport or City:

Trip Planner

Search our weather history database for the weather conditions in past years. The results will help you decide how hot, cold, wet, or windy it might be!

Date:

Astronomy

Oct. 21, 2011 Rise Set
Actual Time 8:55 AM AKDT 6:25 PM AKDT
Civil Twilight 8:10 AM AKDT 7:10 PM AKDT
Nautical Twilight 7:19 AM AKDT 8:01 PM AKDT
Astronomical Twilight 6:28 AM AKDT 8:51 PM AKDT
Moon 1:16 AM AKDT (10/21) 4:39 PM AKDT (10/21)
Length of Visible Light 11h 00m
Length of Day
9h 29m
Waning Crescent, 32% of the Moon is Illuminated
Oct 21
Waning Crescent
Oct 26
New
Nov 2
First Quarter
Nov 10
Full
Nov 18
Last Quarter

Hourly Weather History & Observations

Time (AKDT) Temp. Windchill Dew Point Humidity Pressure Visibility Wind Dir Wind Speed Gust Speed Precip Events Conditions
12:53 AM 37.9 °F 35.5 °F 18.0 °F 45% 29.52 in 10.0 mi ENE 3.5 mph - N/A   Clear
1:53 AM 37.0 °F 31.6 °F 19.0 °F 48% 29.51 in 10.0 mi North 6.9 mph - N/A   Clear
2:53 AM 37.9 °F 29.2 °F 19.9 °F 48% 29.49 in 10.0 mi NNE 15.0 mph - N/A   Clear
3:53 AM 37.0 °F 31.0 °F 19.9 °F 50% 29.48 in 10.0 mi NNE 8.1 mph - N/A   Clear
4:53 AM 37.0 °F 29.8 °F 21.0 °F 52% 29.46 in 10.0 mi NNE 10.4 mph - N/A   Clear
5:53 AM 37.9 °F 30.0 °F 19.9 °F 48% 29.45 in 10.0 mi NNE 12.7 mph - N/A   Clear
6:53 AM 37.9 °F 30.5 °F 21.0 °F 51% 29.44 in 10.0 mi NNE 11.5 mph - N/A   Clear
7:53 AM 37.0 °F 31.6 °F 21.0 °F 52% 29.43 in 10.0 mi NNE 6.9 mph - N/A   Clear
8:53 AM 37.9 °F 32.1 °F 19.9 °F 48% 29.42 in 10.0 mi North 8.1 mph - N/A   Scattered Clouds
9:53 AM 39.9 °F 34.5 °F 25.0 °F 55% 29.41 in 10.0 mi North 8.1 mph - N/A   Mostly Cloudy
10:53 AM 37.9 °F 33.5 °F 21.9 °F 53% 29.39 in 10.0 mi North 5.8 mph - N/A   Mostly Cloudy
11:53 AM 39.9 °F 35.8 °F 21.0 °F 47% 29.38 in 10.0 mi North 5.8 mph - N/A   Mostly Cloudy
12:53 PM 46.0 °F 41.4 °F 23.0 °F 40% 29.37 in 10.0 mi NNW 9.2 mph - N/A   Mostly Cloudy
1:53 PM 43.0 °F 37.7 °F 21.9 °F 43% 29.36 in 10.0 mi NNE 9.2 mph - N/A   Mostly Cloudy
2:53 PM 43.0 °F 38.8 °F 23.0 °F 45% 29.34 in 10.0 mi NNE 6.9 mph - N/A   Scattered Clouds
3:53 PM 44.1 °F 41.5 °F 21.9 °F 42% 29.33 in 10.0 mi North 4.6 mph - N/A   Scattered Clouds
4:53 PM 42.1 °F 37.1 °F 21.9 °F 45% 29.32 in 10.0 mi North 8.1 mph - N/A   Scattered Clouds
5:53 PM 41.0 °F 37.1 °F 23.0 °F 49% 29.33 in 10.0 mi North 5.8 mph - N/A   Scattered Clouds
6:53 PM 37.9 °F 34.4 °F 23.0 °F 55% 29.33 in 10.0 mi North 4.6 mph - N/A   Clear
7:53 PM 34.0 °F 31.0 °F 27.0 °F 75% 29.33 in 10.0 mi Variable 3.5 mph - N/A   Scattered Clouds
8:53 PM 34.0 °F - 28.0 °F 79% 29.34 in 10.0 mi Calm Calm - N/A   Partly Cloudy
9:53 PM 32.0 °F - 28.0 °F 85% 29.35 in 10.0 mi Calm Calm - N/A   Overcast
10:53 PM 34.0 °F 31.0 °F 27.0 °F 75% 29.36 in 10.0 mi NE 3.5 mph - N/A   Overcast
11:53 PM 32.0 °F - 27.0 °F 82% 29.37 in 10.0 mi Calm Calm - N/A   Overcast